Previsão horária em Plosko-Zabuz'ke

Hoje, 5 Março, Sexta-feira

Tempo Temperatura Precipitação Vento Pressão Humidade
00:00 +2°C° 0 mm 3 m/s 747 mmHg 82%
01:00 +2°C° 0 mm 3 m/s 747 mmHg 85%
02:00 +2°C° 0 mm 3 m/s 747 mmHg 87%
03:00 +3°C° 0 mm 2 m/s 747 mmHg 89%
04:00 +3°C° 0 mm 2 m/s 747 mmHg 90%
05:00 +3°C° 0 mm 2 m/s 747 mmHg 91%
06:00 +3°C° 0.1 mm 2 m/s 747 mmHg 93%
07:00 +3°C° 0.1 mm 2 m/s 747 mmHg 95%
08:00 +4°C° 0.1 mm 1 m/s 747 mmHg 97%
09:00 +4°C° 0.1 mm 1 m/s 747 mmHg 97%
10:00 +4°C° 0.1 mm 1 m/s 747 mmHg 97%
11:00 +4°C° 0.1 mm 1 m/s 747 mmHg 98%
12:00 +4°C° 0.2 mm 1 m/s 747 mmHg 98%
13:00 +4°C° 0.2 mm 1 m/s 747 mmHg 98%
14:00 +3°C° 0.2 mm 2 m/s 747 mmHg 98%
15:00 +3°C° 0.5 mm 2 m/s 747 mmHg 98%
16:00 +3°C° 0.5 mm 2 m/s 747 mmHg 98%
17:00 +2°C° 0.5 mm 2 m/s 747 mmHg 98%
18:00 +1°C° 1.3 mm 3 m/s 747 mmHg 98%
19:00 0°C° 1.3 mm 4 m/s 747 mmHg 98%
20:00 0°C° 1.3 mm 4 m/s 748 mmHg 98%
21:00 -1°C° 1.5 mm 5 m/s 748 mmHg 98%
22:00 -2°C° 1.5 mm 6 m/s 748 mmHg 97%
23:00 -3°C° 1.5 mm 7 m/s 748 mmHg 97%

Amanhã, 6 Março, Sábado

Tempo Temperatura Precipitação Vento Pressão Humidade
00:00 -3°C° 0.9 mm 7 m/s 749 mmHg 95%
01:00 -4°C° 0.9 mm 7 m/s 750 mmHg 93%
02:00 -4°C° 0.9 mm 7 m/s 750 mmHg 91%
03:00 -4°C° 0 mm 6 m/s 751 mmHg 89%
04:00 -5°C° 0 mm 6 m/s 751 mmHg 88%
05:00 -5°C° 0 mm 5 m/s 752 mmHg 87%
06:00 -5°C° 0 mm 5 m/s 753 mmHg 85%
07:00 -5°C° 0 mm 6 m/s 753 mmHg 84%
08:00 -6°C° 0 mm 6 m/s 754 mmHg 82%
09:00 -5°C° 0 mm 5 m/s 755 mmHg 76%
10:00 -5°C° 0 mm 5 m/s 755 mmHg 70%
11:00 -4°C° 0 mm 5 m/s 756 mmHg 64%
12:00 -4°C° 0 mm 5 m/s 756 mmHg 63%
13:00 -2°C° 0 mm 4 m/s 756 mmHg 62%
14:00 -2°C° 0 mm 4 m/s 756 mmHg 61%
15:00 -1°C° 0 mm 3 m/s 756 mmHg 64%
16:00 -1°C° 0 mm 3 m/s 757 mmHg 67%
17:00 -2°C° 0 mm 2 m/s 757 mmHg 69%
18:00 -2°C° 0 mm 2 m/s 757 mmHg 71%
19:00 -4°C° 0 mm 3 m/s 757 mmHg 72%
20:00 -4°C° 0 mm 3 m/s 758 mmHg 73%
21:00 -4°C° 0 mm 3 m/s 758 mmHg 75%
22:00 -4°C° 0 mm 3 m/s 758 mmHg 77%
23:00 -4°C° 0 mm 3 m/s 758 mmHg 80%

Depois de amanhã, 7 Março, Domingo

Tempo Temperatura Precipitação Vento Pressão Humidade
00:00 -4°C° 0 mm 3 m/s 758 mmHg 80%
01:00 -5°C° 0 mm 3 m/s 758 mmHg 80%
02:00 -5°C° 0 mm 3 m/s 758 mmHg 80%
03:00 -5°C° 0 mm 3 m/s 758 mmHg 79%
04:00 -5°C° 0 mm 3 m/s 757 mmHg 79%
05:00 -5°C° 0 mm 3 m/s 757 mmHg 78%
06:00 -4°C° 0 mm 4 m/s 757 mmHg 75%
07:00 -5°C° 0 mm 5 m/s 757 mmHg 73%
08:00 -4°C° 0 mm 5 m/s 756 mmHg 70%
09:00 -3°C° 0 mm 6 m/s 756 mmHg 66%
10:00 -2°C° 0 mm 6 m/s 755 mmHg 62%
11:00 -1°C° 0 mm 7 m/s 755 mmHg 59%
12:00 -1°C° 0 mm 7 m/s 754 mmHg 56%
13:00 0°C° 0 mm 8 m/s 754 mmHg 53%
14:00 0°C° 0 mm 8 m/s 753 mmHg 51%
15:00 0°C° 0 mm 7 m/s 752 mmHg 54%
16:00 +1°C° 0 mm 6 m/s 752 mmHg 57%
17:00 0°C° 0 mm 5 m/s 751 mmHg 60%
18:00 0°C° 0 mm 5 m/s 751 mmHg 62%
19:00 -1°C° 0 mm 5 m/s 751 mmHg 64%
20:00 -2°C° 0 mm 5 m/s 751 mmHg 67%
21:00 -2°C° 0 mm 5 m/s 751 mmHg 67%
22:00 -2°C° 0 mm 5 m/s 751 mmHg 67%
23:00 -2°C° 0 mm 5 m/s 750 mmHg 68%

8 Março, Segunda-feira

Tempo Temperatura Precipitação Vento Pressão Humidade
00:00 -2°C° 0 mm 5 m/s 750 mmHg 69%
01:00 -2°C° 0 mm 5 m/s 750 mmHg 70%
02:00 -2°C° 0 mm 5 m/s 750 mmHg 70%
03:00 -2°C° 0 mm 4 m/s 749 mmHg 71%
04:00 -2°C° 0 mm 4 m/s 749 mmHg 73%
05:00 -3°C° 0 mm 4 m/s 749 mmHg 74%
06:00 -2°C° 0 mm 4 m/s 749 mmHg 71%
07:00 -2°C° 0 mm 5 m/s 749 mmHg 69%
08:00 -1°C° 0 mm 5 m/s 749 mmHg 66%
09:00 0°C° 0 mm 5 m/s 748 mmHg 63%
10:00 +1°C° 0 mm 6 m/s 748 mmHg 60%
11:00 +2°C° 0 mm 6 m/s 748 mmHg 57%
12:00 +3°C° 0 mm 6 m/s 748 mmHg 56%
13:00 +3°C° 0 mm 6 m/s 748 mmHg 55%
14:00 +3°C° 0 mm 6 m/s 748 mmHg 54%
15:00 +3°C° 0 mm 5 m/s 748 mmHg 58%
16:00 +3°C° 0 mm 3 m/s 747 mmHg 63%
17:00 +3°C° 0 mm 2 m/s 747 mmHg 68%
18:00 +2°C° 0 mm 2 m/s 747 mmHg 71%
19:00 +2°C° 0 mm 2 m/s 748 mmHg 75%
20:00 +1°C° 0 mm 2 m/s 748 mmHg 79%
21:00 +1°C° 0 mm 2 m/s 748 mmHg 82%
22:00 -1°C° 0 mm 2 m/s 748 mmHg 85%
23:00 -1°C° 0 mm 2 m/s 748 mmHg 88%

9 Março, Terça-feira

Tempo Temperatura Precipitação Vento Pressão Humidade
00:00 -1°C° 0.1 mm 3 m/s 748 mmHg 88%
01:00 -3°C° 0.1 mm 4 m/s 749 mmHg 89%
02:00 -4°C° 0.1 mm 5 m/s 749 mmHg 90%
03:00 -3°C° 0 mm 4 m/s 749 mmHg 89%
04:00 -4°C° 0 mm 4 m/s 750 mmHg 88%
05:00 -4°C° 0 mm 3 m/s 750 mmHg 88%
06:00 -4°C° 0 mm 4 m/s 750 mmHg 85%
07:00 -4°C° 0 mm 4 m/s 751 mmHg 81%
08:00 -4°C° 0 mm 4 m/s 751 mmHg 78%
09:00 -4°C° 0.1 mm 5 m/s 751 mmHg 71%
10:00 -2°C° 0.1 mm 5 m/s 752 mmHg 65%
11:00 -2°C° 0.1 mm 5 m/s 752 mmHg 58%
12:00 -2°C° 0 mm 5 m/s 752 mmHg 57%
13:00 -3°C° 0 mm 6 m/s 753 mmHg 57%
14:00 -3°C° 0 mm 6 m/s 753 mmHg 56%
15:00 -3°C° 0 mm 6 m/s 753 mmHg 57%
16:00 -4°C° 0 mm 5 m/s 753 mmHg 57%
17:00 -5°C° 0 mm 5 m/s 753 mmHg 57%
18:00 -4°C° 0 mm 4 m/s 754 mmHg 61%
19:00 -5°C° 0 mm 4 m/s 754 mmHg 65%
20:00 -5°C° 0 mm 3 m/s 755 mmHg 68%
21:00 -5°C° 0 mm 3 m/s 756 mmHg 67%
22:00 -7°C° 0 mm 4 m/s 756 mmHg 65%
23:00 -7°C° 0 mm 4 m/s 757 mmHg 64%

10 Março, Quarta-feira

Tempo Temperatura Precipitação Vento Pressão Humidade
00:00 -7°C° 0 mm 4 m/s 757 mmHg 63%
01:00 -8°C° 0 mm 4 m/s 757 mmHg 62%
02:00 -8°C° 0 mm 4 m/s 758 mmHg 61%
03:00 -8°C° 0 mm 5 m/s 758 mmHg 62%
04:00 -10°C° 0 mm 5 m/s 758 mmHg 62%
05:00 -10°C° 0 mm 5 m/s 758 mmHg 63%
06:00 -10°C° 0 mm 5 m/s 759 mmHg 63%
07:00 -10°C° 0 mm 5 m/s 759 mmHg 62%
08:00 -11°C° 0 mm 5 m/s 760 mmHg 61%
09:00 -9°C° 0 mm 4 m/s 760 mmHg 57%
10:00 -8°C° 0 mm 4 m/s 760 mmHg 53%
11:00 -7°C° 0 mm 4 m/s 761 mmHg 50%
12:00 -7°C° 0 mm 4 m/s 761 mmHg 47%
13:00 -5°C° 0 mm 3 m/s 761 mmHg 43%
14:00 -5°C° 0 mm 3 m/s 761 mmHg 40%
15:00 -5°C° 0 mm 3 m/s 761 mmHg 41%
16:00 -4°C° 0 mm 2 m/s 760 mmHg 42%
17:00 -4°C° 0 mm 2 m/s 760 mmHg 42%
18:00 -4°C° 0 mm 2 m/s 760 mmHg 46%
19:00 -5°C° 0 mm 2 m/s 761 mmHg 49%
20:00 -3°C° 0 mm 1 m/s 761 mmHg 52%
21:00 -3°C° 0 mm 1 m/s 761 mmHg 53%
22:00 -3°C° 0 mm 1 m/s 761 mmHg 53%
23:00 -4°C° 0 mm 0 m/s 761 mmHg 53%
Mostrar mais

Necessitamos do seu Consentimento

A Meteoprog e os seus Fornecedores de Serviços podem armazenar e aceder a dados pessoais como cookies, identificadores do dispositivo ou outras tecnologias semelhantes existentes no seu dispositivo e processar estes dados para personalizar conteúdos e anúncios, assim como funcionalidades nas redes sociais e análise de tráfego.

  • Armazenar e/ou aceder a informações no seu dispositivo

    Os cookies, identificadores do dispositivo ou outras informações podem ser armazenados ou acedidos no seu dispositivo, para os fins acima indicados.

  • Anúncios e conteúdos personalizados, medição de anúncios e conteúdos, dados sobre o público-alvo e desenvolvimento de produtos

    Os anúncios e os conteúdos podem ser personalizados com base num perfil. Podem ser adicionados dados adicionais para uma maior personalização dos anúncios e dos conteúdos. A eficácia dos anúncios e dos conteúdos pode ser medida. Podem ser obtidas informações sobre o público que visualizou os anúncios e os conteúdos. Estes dados podem ser usados para desenvolver ou melhorar sistemas, softwares ou a experiência do utilizador.

Ao clicar em "Eu concordo”, permitirá o uso de cookies, identificadores do dispositivo e web beacons mencionados ou outras tecnologias semelhantes. As configurações do navegador do seu dispositivo podem ser alteradas.

Para certos fins, podem ser invocados interesses legítimos ao invés de consentimento. Pode ler mais informação sobre este assunto na nossa Política de Privacidade e Cookies.